TimeAKDT,TemperatureF,Dew PointF,Humidity,Sea Level PressureIn,VisibilityMPH,Wind Direction,Wind SpeedMPH,Gust SpeedMPH,PrecipitationIn,Events,Conditions,WindDirDegrees,DateUTC
12:52 AM,55.0,39.9,57,29.76,10.0,NE,4.6,-,N/A,,Clear,50,2013-05-28 08:52:00
1:52 AM,48.0,39.0,71,29.76,10.0,Calm,Calm,-,N/A,,Mostly Cloudy,0,2013-05-28 09:52:00
2:52 AM,46.0,37.0,71,29.76,10.0,Calm,Calm,-,N/A,,Clear,0,2013-05-28 10:52:00
3:52 AM,42.1,35.1,76,29.77,10.0,NW,3.5,-,N/A,,Partly Cloudy,320,2013-05-28 11:52:00
4:52 AM,41.0,35.1,79,29.77,10.0,Calm,Calm,-,N/A,,Partly Cloudy,0,2013-05-28 12:52:00
5:52 AM,45.0,37.0,74,29.78,10.0,Calm,Calm,-,N/A,,Clear,0,2013-05-28 13:52:00
6:52 AM,45.0,37.0,74,29.78,10.0,Calm,Calm,-,N/A,,Partly Cloudy,0,2013-05-28 14:52:00
7:52 AM,48.0,37.9,68,29.78,10.0,Calm,Calm,-,N/A,,Partly Cloudy,0,2013-05-28 15:52:00
8:52 AM,55.9,39.9,55,29.77,10.0,Calm,Calm,-,N/A,,Partly Cloudy,0,2013-05-28 16:52:00
9:52 AM,55.9,39.0,53,29.77,10.0,Calm,Calm,-,N/A,,Partly Cloudy,0,2013-05-28 17:52:00
10:52 AM,57.9,39.0,49,29.77,10.0,Calm,Calm,-,N/A,,Clear,0,2013-05-28 18:52:00
11:52 AM,69.1,39.0,33,29.75,10.0,SE,3.5,-,N/A,,Partly Cloudy,130,2013-05-28 19:52:00
12:52 PM,75.9,37.0,24,29.74,10.0,Calm,Calm,-,N/A,,Partly Cloudy,0,2013-05-28 20:52:00
1:52 PM,77.0,39.0,25,29.73,10.0,Calm,Calm,-,N/A,,Partly Cloudy,0,2013-05-28 21:52:00
2:52 PM,77.0,37.0,24,29.72,10.0,ESE,6.9,-,N/A,,Mostly Cloudy,120,2013-05-28 22:52:00
3:52 PM,84.0,35.1,17,29.71,10.0,NW,8.1,16.1,N/A,,Mostly Cloudy,320,2013-05-28 23:52:00
4:52 PM,82.0,34.0,18,29.70,10.0,WNW,4.6,-,N/A,,Mostly Cloudy,300,2013-05-29 00:52:00
5:52 PM,82.9,33.1,17,29.69,10.0,North,9.2,-,N/A,,Mostly Cloudy,350,2013-05-29 01:52:00
6:52 PM,82.9,34.0,17,29.68,10.0,North,11.5,-,N/A,,Mostly Cloudy,360,2013-05-29 02:52:00
7:52 PM,81.0,33.1,18,29.69,10.0,NE,5.8,-,N/A,,Mostly Cloudy,50,2013-05-29 03:52:00
8:05 PM,82.4,33.8,17,29.68,4.0,Variable,4.6,-,N/A,,Haze,0,2013-05-29 04:05:00
8:52 PM,75.0,34.0,22,29.68,10.0,Calm,Calm,-,N/A,,Mostly Cloudy,0,2013-05-29 04:52:00
9:52 PM,75.0,39.0,27,29.70,10.0,North,10.4,-,N/A,,Clear,350,2013-05-29 05:52:00
10:52 PM,71.1,39.0,31,29.70,10.0,North,8.1,-,N/A,,Clear,360,2013-05-29 06:52:00
11:52 PM,66.9,39.9,37,29.71,10.0,NNE,5.8,-,N/A,,Clear,20,2013-05-29 07:52:00